Starlink 5037

operational
NORAD ID: 53896 Int'l Des: 2022-119 Owner: SPXS Country: US Constellation: starlink
LEOCIRCULAR

Starlink 5037について

説明を読み込み中...

リアルタイム位置

3D地球を読み込み中...

次回通過

高度履歴

Altitude vs Time

uPlot chart will show altitude changes over time

軌道要素

1 53896U 22119L 25303.97014189 .00000066 00000-0 22217-4 0 9998
2 53896 53.2164 186.2931 0001423 85.9018 274.2136 15.08845374172106
Epoch: Oct 30, 2025 • Age: 11 hours

現在のステータス

高度 544.8 km
速度 7.60 km/s
衛星直下点 50.96°N, 49.49°E
打ち上げ日 Sep 24, 2022
運用期間 3 years
タイプ internet

技術仕様

分類 Payload
質量 305.00 kg
乾燥質量 290.00 kg
総質量 305.00 kg
長さ 0.20 m
直径 2.80 m
スパン 9.00 m
形状 Box + pan
製造者 SPXS
バスタイプ Starlink
フェーズステータス In Orbit
所有者/国 SPXS/US

大規模コンステレーション

Loading constellations...